| time (UTC) | temp F | wind direction | speed MPH | gust MPH | rain 1hr in | rain 24hr in | rain mn in | humidity % | barometer mb |
| 20260906103657 | 95 | 0 | 0.0 | 0.0 | 0.00 | 0.00 | 0.00 | 22 | 916.0 |
| 20260906100135 | 91 | 0 | 0.0 | 0.0 | 0.00 | 0.00 | 0.00 | 21 | 916.0 |
| 20260906092613 | 90 | 0 | 0.0 | 0.0 | 0.00 | 0.00 | 0.00 | 22 | 916.0 |
| 20260906085051 | 90 | 0 | 0.0 | 0.0 | 0.00 | 0.00 | 0.00 | 23 | 916.0 |
| 20260906081528 | 91 | 0 | 0.0 | 0.0 | 0.00 | 0.00 | 0.00 | 24 | 916.0 |
| 20260906074006 | 91 | 0 | 0.0 | 0.0 | 0.00 | 0.00 | 0.00 | 24 | 917.0 |
| 20260906070443 | 93 | 0 | 0.0 | 0.0 | 0.00 | 0.00 | 0.00 | 23 | 917.0 |
| 20260906062921 | 93 | 0 | 0.0 | 0.0 | 0.00 | 0.00 | 0.00 | 22 | 917.0 |
| 20260906055359 | 97 | 0 | 0.0 | 0.0 | 0.00 | 0.00 | 0.00 | 20 | 916.0 |
| 20260906051837 | 91 | 0 | 0.0 | 0.0 | 0.00 | 0.00 | 0.00 | 22 | 917.0 |
| 20260906044315 | 84 | 0 | 0.0 | 0.0 | 0.00 | 0.00 | 0.00 | 28 | 917.0 |
| 20260906040752 | 84 | 0 | 0.0 | 0.0 | 0.00 | 0.00 | 0.00 | 29 | 916.0 |
| 20260906033230 | 84 | 0 | 0.0 | 0.0 | 0.00 | 0.00 | 0.00 | 28 | 916.0 |
| 20260906033122 | 84 | 0 | 0.0 | 0.0 | 0.00 | 0.00 | 0.00 | 28 | 916.0 |
| 20260906025600 | 84 | 0 | 0.0 | 0.0 | 0.00 | 0.00 | 0.00 | 28 | 916.0 |
| 20260906022038 | 84 | 0 | 0.0 | 0.0 | 0.00 | 0.00 | 0.00 | 27 | 916.0 |
| 20260906014516 | 85 | 0 | 0.0 | 0.0 | 0.00 | 0.00 | 0.00 | 27 | 916.0 |
| 20260906010954 | 85 | 0 | 0.0 | 0.0 | 0.00 | 0.00 | 0.00 | 27 | 916.0 |
| 20260906003431 | 86 | 0 | 0.0 | 0.0 | 0.00 | 0.00 | 0.00 | 25 | 916.0 |
| 20260905235909 | 86 | 0 | 0.0 | 0.0 | 0.00 | 0.00 | 0.00 | 23 | 916.0 |
| 20260905232346 | 87 | 0 | 0.0 | 0.0 | 0.00 | 0.00 | 0.00 | 23 | 916.0 |
| 20260905224824 | 87 | 0 | 0.0 | 0.0 | 0.00 | 0.00 | 0.00 | 23 | 916.0 |
| 20260905221302 | 86 | 0 | 0.0 | 0.0 | 0.00 | 0.00 | 0.00 | 23 | 916.0 |
| 20260905213740 | 86 | 0 | 0.0 | 0.0 | 0.00 | 0.00 | 0.00 | 23 | 916.0 |
| 20260905210218 | 86 | 0 | 0.0 | 0.0 | 0.00 | 0.00 | 0.00 | 24 | 916.0 |
| 20260905202655 | 86 | 0 | 0.0 | 0.0 | 0.00 | 0.00 | 0.00 | 24 | 916.0 |
| 20260905195133 | 87 | 0 | 0.0 | 0.0 | 0.00 | 0.00 | 0.00 | 24 | 916.0 |
| 20260905191611 | 87 | 0 | 0.0 | 0.0 | 0.00 | 0.00 | 0.00 | 23 | 916.0 |
| 20260905184048 | 88 | 0 | 0.0 | 0.0 | 0.00 | 0.00 | 0.00 | 22 | 916.0 |
| 20260905180526 | 89 | 0 | 0.0 | 0.0 | 0.00 | 0.00 | 0.00 | 22 | 916.0 |
| 20260905173004 | 88 | 0 | 0.0 | 0.0 | 0.00 | 0.00 | 0.00 | 22 | 915.0 |
| 20260905165442 | 89 | 0 | 0.0 | 0.0 | 0.00 | 0.00 | 0.00 | 23 | 915.0 |
| 20260905161920 | 90 | 0 | 0.0 | 0.0 | 0.00 | 0.00 | 0.00 | 24 | 915.0 |
| 20260905154357 | 91 | 0 | 0.0 | 0.0 | 0.00 | 0.00 | 0.00 | 25 | 915.0 |
| 20260905150834 | 91 | 0 | 0.0 | 0.0 | 0.00 | 0.00 | 0.00 | 24 | 915.0 |
| 20260905150727 | 92 | 0 | 0.0 | 0.0 | 0.00 | 0.00 | 0.00 | 22 | 915.0 |
| 20260905143205 | 93 | 0 | 0.0 | 0.0 | 0.00 | 0.00 | 0.00 | 22 | 915.0 |
| 20260905135643 | 95 | 0 | 0.0 | 0.0 | 0.00 | 0.00 | 0.00 | 21 | 915.0 |
| 20260905132121 | 96 | 0 | 0.0 | 0.0 | 0.00 | 0.00 | 0.00 | 20 | 915.0 |
| 20260905124558 | 97 | 0 | 0.0 | 0.0 | 0.00 | 0.00 | 0.00 | 20 | 915.0 |
| 20260905121036 | 98 | 0 | 0.0 | 0.0 | 0.00 | 0.00 | 0.00 | 19 | 916.0 |
| 20260905113514 | 99 | 0 | 0.0 | 0.0 | 0.00 | 0.00 | 0.00 | 20 | 916.0 |
| 20260905105952 | 98 | 0 | 0.0 | 0.0 | 0.00 | 0.00 | 0.00 | 23 | 916.0 |